Starlink 11264

operational
NORAD ID: 60906 Int'l Des: 2024-154 Owner: SPXS Country: US Constellation: starlink
LEOCIRCULAR

关于 Starlink 11264

正在加载描述...

实时位置

正在加载3D地球...

即将过境

高度历史

Altitude vs Time

uPlot chart will show altitude changes over time

两行轨道根数

1 60906U 24154D 25258.74346291 .00002105 00000-0 22215-4 0 9999
2 60906 53.1608 273.9409 0001016 86.0235 274.0899 15.69728090 61038
Epoch: Sep 15, 2025 • Age: 15 hours

当前状态

高度 365.8 km
速度 7.69 km/s
星下点 -20.89°S, 15.15°W
发射日期 Aug 31, 2024
运行时间 1 years
类型 internet

技术详情

分类 Payload
质量 960.00 kg
干质量 910.00 kg
总质量 960.00 kg
长度 0.30 m
直径 4.10 m
跨度 29.00 m
形状 Box + pan
制造商 SPXS
平台类型 Starlink V2MD
阶段状态 In Orbit
所有者/国家 SPXS/US

大型星座

Loading constellations...